[[{"header":{"parameterUnit":"m.s-1","parameterCategory":1,"la1":30.2992,"la2":30.254,"lo1":-89.0895,"lo2":-89.0443,"dy":0.0025,"dx":0.0025,"nx":19,"ny":19,"refTime":"2026-05-12T21:00:00:Z","depth":0,"parameterNumber":2,"parameterNumberName":"U-component_of_WINDS"},"data":[0,0,0,1.1865,1.1867,1.1949,1.1949,1.2056,1.2057,0,0,0,0,0,0,0,0,0,0,0,1.1838,1.1838,1.1865,1.1867,1.1949,1.1949,1.2056,1.2057,0,0,0,0,0,0,0,0,0,0,0,1.1838,1.1838,1.1839,1.1867,1.1949,1.1949,1.2055,1.1994,0,0,0,0,0,0,0,0,0,0,1.1914,1.1885,1.1838,1.1839,1.1868,1.1949,1.1949,1.1991,1.1998,1.2018,0,1.2032,0,1.2046,1.2063,1.2064,0,0,0,1.187,1.1879,1.1904,1.1839,1.1868,1.1949,1.1913,1.1995,1.2002,1.2027,1.2034,1.2038,1.2048,1.2064,1.2065,1.2167,1.2167,0,0,1.1865,1.1852,1.1899,1.1909,1.1892,1.191,1.1915,1.1999,1.2007,1.2034,1.204,1.2049,1.2065,1.2066,1.2167,1.2167,0,0,0,1.185,1.1849,1.1871,1.1904,1.1919,1.1912,1.1918,1.2003,1.2012,1.2042,1.2051,1.2065,1.2067,1.2166,1.2167,1.2171,0,0,0,1.1848,1.184,1.1869,1.1862,1.1917,1.1961,1.192,1.2006,1.2016,1.205,1.2065,1.2068,1.2166,1.2166,1.217,1.2175,0,0,0,1.1834,1.1838,1.1849,1.1861,1.1895,1.196,1.1973,1.2008,1.2021,1.2064,1.2068,1.2166,1.2166,1.2169,1.2174,1.2199,0,0,0,1.1815,1.1851,1.1849,1.1893,1.1894,1.1961,1.1973,1.2024,1.2061,1.2066,1.2166,1.2167,1.2169,1.2173,1.2198,1.2219,1.2226,0,0,1.1853,1.1855,1.1883,1.1883,1.1946,1.195,1.2015,1.2062,1.208,1.2138,1.2141,1.217,1.2174,1.2199,1.2267,1.2272,0,0,0,1.189,1.191,1.1929,1.1963,1.1999,1.2032,1.207,1.2089,1.2138,1.2106,1.2186,1.2189,1.2204,1.2215,1.2219,1.2235,1.2171,1.217,1.217,1.1925,1.1945,1.1992,1.2022,1.2055,1.2095,1.2125,1.2157,1.2167,1.2186,1.2203,1.2242,1.2253,1.2257,1.2273,1.2215,1.2215,1.2215,1.2215,1.1984,1.2015,1.2029,1.2079,1.2101,1.2145,1.2187,1.2193,1.2239,1.223,1.2244,1.2233,1.2262,1.2277,1.2216,1.2216,1.2215,1.2215,1.2215,1.201,1.2028,1.2049,1.2101,1.214,1.217,1.2214,1.2233,1.2251,1.2265,1.2288,1.2288,1.2291,1.2274,1.2275,1.2275,1.2275,1.2275,1.2275,1.2029,1.2052,1.2085,1.2127,1.2153,1.2189,1.2232,1.2258,1.2293,1.2304,1.2304,1.2315,1.226,1.2247,1.2277,1.2277,1.2277,1.2276,1.2276,1.2082,1.2073,1.2124,1.215,1.2203,1.2242,1.2266,1.2319,1.2344,1.2366,1.2374,1.233,1.2334,1.2331,1.232,1.2368,1.2368,1.2368,1.2368,1.2105,1.2108,1.2166,1.2206,1.2247,1.2274,1.2336,1.2371,1.2407,1.2425,1.242,1.2408,1.2403,1.241,1.2405,1.2396,1.2461,1.2461,1.2461,1.214,1.2149,1.2195,1.2227,1.2271,1.231,1.2369,1.2418,1.2457,1.2466,1.244,1.2436,1.2415,1.2407,1.2415,1.2406,1.2389,0,0]},{"header":{"parameterUnit":"m.s-1","parameterCategory":1,"la1":30.2992,"la2":30.254,"lo1":-89.0895,"lo2":-89.0443,"dy":0.0025,"dx":0.0025,"nx":19,"ny":19,"refTime":"2026-05-12T21:00:00:Z","depth":0,"parameterNumber":3,"parameterNumberName":"V-component_of_WINDS"},"data":[0,0,0,-2.7625,-2.7624,-2.7612,-2.7612,-2.7589,-2.7589,0,0,0,0,0,0,0,0,0,0,0,-2.7625,-2.7625,-2.7625,-2.7624,-2.7612,-2.7612,-2.7589,-2.7589,0,0,0,0,0,0,0,0,0,0,0,-2.7625,-2.7625,-2.7625,-2.7624,-2.7612,-2.7612,-2.7589,-2.7601,0,0,0,0,0,0,0,0,0,0,-2.7614,-2.7612,-2.7625,-2.7625,-2.7624,-2.7612,-2.7612,-2.7601,-2.76,-2.7592,0,-2.7585,0,-2.7586,-2.7587,-2.7587,0,0,0,-2.7626,-2.7613,-2.7612,-2.7625,-2.7624,-2.7612,-2.7618,-2.7601,-2.7599,-2.759,-2.7585,-2.7584,-2.7586,-2.7587,-2.7586,-2.7535,-2.7534,0,0,-2.7627,-2.7621,-2.7613,-2.7611,-2.7614,-2.7618,-2.7618,-2.76,-2.7593,-2.7585,-2.7584,-2.7586,-2.7586,-2.7586,-2.7535,-2.7535,0,0,0,-2.7628,-2.7622,-2.7622,-2.7612,-2.761,-2.7618,-2.7617,-2.7594,-2.7595,-2.7583,-2.7585,-2.7586,-2.7586,-2.7535,-2.7535,-2.7511,0,0,0,-2.7628,-2.7622,-2.7622,-2.7618,-2.7611,-2.7602,-2.7612,-2.7596,-2.7594,-2.7586,-2.7586,-2.7586,-2.7536,-2.7535,-2.7513,-2.7501,0,0,0,-2.7627,-2.7622,-2.7619,-2.7618,-2.7613,-2.7603,-2.7602,-2.7596,-2.7595,-2.7587,-2.7585,-2.7536,-2.7535,-2.7514,-2.7503,-2.7483,0,0,0,-2.7624,-2.76,-2.7619,-2.7592,-2.7613,-2.7589,-2.7602,-2.7585,-2.7576,-2.7586,-2.7536,-2.7535,-2.7515,-2.7504,-2.7485,-2.7465,-2.7456,0,0,-2.759,-2.7595,-2.758,-2.7597,-2.7568,-2.7592,-2.7559,-2.7556,-2.756,-2.7543,-2.7541,-2.7512,-2.7503,-2.7484,-2.7416,-2.7409,0,0,0,-2.7567,-2.7555,-2.7549,-2.7539,-2.7536,-2.7532,-2.7534,-2.7532,-2.7517,-2.755,-2.7502,-2.7496,-2.7485,-2.7475,-2.747,-2.7459,-2.7531,-2.7531,-2.7531,-2.7509,-2.7515,-2.7489,-2.7494,-2.7485,-2.7487,-2.7479,-2.7477,-2.7487,-2.7475,-2.7469,-2.7427,-2.7416,-2.7412,-2.7401,-2.7461,-2.7461,-2.7461,-2.7461,-2.7457,-2.744,-2.7454,-2.7433,-2.744,-2.7423,-2.7423,-2.7431,-2.7414,-2.7433,-2.7423,-2.7441,-2.7404,-2.7395,-2.7459,-2.746,-2.746,-2.746,-2.746,-2.7417,-2.741,-2.7409,-2.7395,-2.7383,-2.7389,-2.7372,-2.7379,-2.7386,-2.7377,-2.737,-2.737,-2.7369,-2.7374,-2.7373,-2.7373,-2.7373,-2.7373,-2.7373,-2.7376,-2.7375,-2.736,-2.7354,-2.7348,-2.7341,-2.7342,-2.7335,-2.733,-2.7336,-2.7336,-2.7346,-2.7401,-2.7413,-2.7371,-2.7371,-2.7371,-2.7372,-2.7372,-2.7316,-2.7331,-2.7308,-2.7301,-2.7293,-2.7279,-2.729,-2.7276,-2.7272,-2.7262,-2.7274,-2.7315,-2.732,-2.7325,-2.7335,-2.7275,-2.7275,-2.7275,-2.7275,-2.7281,-2.7285,-2.7262,-2.7251,-2.7241,-2.7248,-2.7219,-2.7219,-2.7221,-2.7218,-2.7228,-2.7243,-2.7247,-2.725,-2.7256,-2.7265,-2.719,-2.7189,-2.7189,-2.7243,-2.7247,-2.7221,-2.7224,-2.7218,-2.7212,-2.7185,-2.717,-2.7176,-2.7186,-2.7215,-2.7219,-2.7243,-2.7251,-2.726,-2.7269,-2.7286,0,0]}]]